Climatologie pour Saint-Brevin les Pins
Jour • Résumé pour mars 27, 2017 Système :  Métrique    Anglais   Mixte
« - 1 jour
+ 1 jour »
Jour Semaine Mois Année Personnalisé
  Maximum : Minimum : Moyenne :
Température sous abri : 20.3 °C 7.2 °C 12.8 °C
Point de rosée : 10.4 °C 5.0 °C 7.5 °C
Humidité : 87 % 49 % 71 %
Vitesse du vent : 22.5 km/h 1.6 km/h 7.5 km/h
Rafale : 25.7 km/h - -
Direction :- - SE
Pression : 1018.8 hPa 1015.8 hPa -
Précipitations : 0.0 mm    
Historical Graphs
 
 
Tableau de données pour mars 27, 2017
Heure Tempé Pt rosée Pression Vent Vitesse Rafale Humidité Taux pluie (/hr) Soleil
00:00 9.9 °C 7.5 °C 1017.5 hPa ENE 3.2 km/h 11.3 km/h 85 % 0.0 mm 0 W/m2
00:10 9.8 °C 7.4 °C 1017.5 hPa East 4.8 km/h 11.3 km/h 85 % 0.0 mm 0 W/m2
00:15 9.8 °C 7.4 °C 1017.5 hPa ENE 4.8 km/h 11.3 km/h 85 % 0.0 mm 0 W/m2
00:20 9.8 °C 7.4 °C 1017.5 hPa East 8.0 km/h 11.3 km/h 85 % 0.0 mm 0 W/m2
00:25 9.6 °C 7.0 °C 1017.5 hPa ESE 3.2 km/h 11.3 km/h 84 % 0.0 mm 0 W/m2
00:30 9.7 °C 7.1 °C 1017.5 hPa ESE 4.8 km/h 11.3 km/h 84 % 0.0 mm 0 W/m2
00:35 9.7 °C 7.1 °C 1017.5 hPa ESE 6.4 km/h 14.5 km/h 84 % 0.0 mm 0 W/m2
00:40 9.8 °C 7.0 °C 1017.2 hPa East 8.0 km/h 14.5 km/h 83 % 0.0 mm 0 W/m2
00:50 9.8 °C 7.1 °C 1017.2 hPa ENE 6.4 km/h 11.3 km/h 83 % 0.0 mm 0 W/m2
00:55 9.8 °C 6.9 °C 1017.2 hPa ESE 8.0 km/h 11.3 km/h 82 % 0.0 mm 0 W/m2
01:00 9.8 °C 6.9 °C 1017.2 hPa ESE 4.8 km/h 11.3 km/h 82 % 0.0 mm 0 W/m2
01:05 9.8 °C 6.9 °C 1017.2 hPa East 4.8 km/h 12.9 km/h 82 % 0.0 mm 0 W/m2
01:10 9.9 °C 6.8 °C 1017.2 hPa East 4.8 km/h 12.9 km/h 81 % 0.0 mm 0 W/m2
01:15 9.9 °C 6.8 °C 1017.2 hPa East 11.3 km/h 12.9 km/h 81 % 0.0 mm 0 W/m2
01:20 10.0 °C 6.7 °C 1017.2 hPa ESE 8.0 km/h 14.5 km/h 80 % 0.0 mm 0 W/m2
01:25 10.1 °C 6.8 °C 1017.2 hPa East 9.7 km/h 14.5 km/h 80 % 0.0 mm 0 W/m2
01:30 10.2 °C 6.7 °C 1017.2 hPa East 9.7 km/h 12.9 km/h 79 % 0.0 mm 0 W/m2
01:35 10.2 °C 6.5 °C 1017.5 hPa ESE 8.0 km/h 12.9 km/h 78 % 0.0 mm 0 W/m2
01:40 10.2 °C 6.5 °C 1017.5 hPa ESE 4.8 km/h 12.9 km/h 78 % 0.0 mm 0 W/m2
01:45 10.2 °C 6.5 °C 1017.5 hPa ESE 8.0 km/h 12.9 km/h 78 % 0.0 mm 0 W/m2
01:50 10.1 °C 6.4 °C 1017.5 hPa ESE 3.2 km/h 11.3 km/h 78 % 0.0 mm 0 W/m2
01:55 10.1 °C 6.4 °C 1017.5 hPa ESE 6.4 km/h 12.9 km/h 78 % 0.0 mm 0 W/m2
02:00 9.9 °C 6.3 °C 1017.5 hPa ESE 6.4 km/h 12.9 km/h 78 % 0.0 mm 0 W/m2
02:05 10.1 °C 6.4 °C 1017.5 hPa ESE 6.4 km/h 16.1 km/h 78 % 0.0 mm 0 W/m2
02:10 10.1 °C 6.2 °C 1017.5 hPa East 4.8 km/h 16.1 km/h 77 % 0.0 mm 0 W/m2
02:15 9.9 °C 6.1 °C 1017.5 hPa East 8.0 km/h 12.9 km/h 77 % 0.0 mm 0 W/m2
02:20 9.9 °C 6.1 °C 1017.2 hPa ESE 3.2 km/h 11.3 km/h 77 % 0.0 mm 0 W/m2
02:25 9.8 °C 6.0 °C 1017.5 hPa ESE 4.8 km/h 11.3 km/h 77 % 0.0 mm 0 W/m2
02:30 9.8 °C 6.1 °C 1017.5 hPa ESE 6.4 km/h 12.9 km/h 78 % 0.0 mm 0 W/m2
02:35 9.8 °C 5.9 °C 1017.5 hPa ESE 8.0 km/h 14.5 km/h 77 % 0.0 mm 0 W/m2
02:40 9.8 °C 6.0 °C 1017.5 hPa East 3.2 km/h 14.5 km/h 77 % 0.0 mm 0 W/m2
02:45 9.8 °C 6.0 °C 1017.2 hPa East 3.2 km/h 14.5 km/h 77 % 0.0 mm 0 W/m2
02:50 9.9 °C 6.1 °C 1017.2 hPa East 4.8 km/h 14.5 km/h 77 % 0.0 mm 0 W/m2
02:55 9.9 °C 5.9 °C 1017.2 hPa East 9.7 km/h 12.9 km/h 76 % 0.0 mm 0 W/m2
03:00 9.8 °C 5.8 °C 1017.2 hPa ESE 11.3 km/h 16.1 km/h 76 % 0.0 mm 0 W/m2
03:05 9.8 °C 5.9 °C 1017.2 hPa ESE 8.0 km/h 16.1 km/h 77 % 0.0 mm 0 W/m2
03:10 9.8 °C 5.8 °C 1017.2 hPa SE 3.2 km/h 12.9 km/h 76 % 0.0 mm 0 W/m2
03:15 9.8 °C 5.7 °C 1017.2 hPa ESE 3.2 km/h 12.9 km/h 76 % 0.0 mm 0 W/m2
03:20 9.7 °C 5.9 °C 1017.2 hPa ESE 8.0 km/h 14.5 km/h 77 % 0.0 mm 0 W/m2
03:25 9.6 °C 5.7 °C 1017.2 hPa East 3.2 km/h 14.5 km/h 77 % 0.0 mm 0 W/m2
03:30 9.5 °C 5.7 °C 1017.2 hPa ESE 8.0 km/h 14.5 km/h 77 % 0.0 mm 0 W/m2
03:35 9.4 °C 5.8 °C 1016.8 hPa ESE 3.2 km/h 14.5 km/h 78 % 0.0 mm 0 W/m2
03:40 9.4 °C 5.7 °C 1016.8 hPa ESE 9.7 km/h 12.9 km/h 78 % 0.0 mm 0 W/m2
03:45 9.3 °C 5.7 °C 1016.8 hPa East 3.2 km/h 12.9 km/h 78 % 0.0 mm 0 W/m2
03:50 9.3 °C 5.7 °C 1016.8 hPa East 4.8 km/h 12.9 km/h 78 % 0.0 mm 0 W/m2
03:55 9.3 °C 5.7 °C 1016.8 hPa ESE 4.8 km/h 12.9 km/h 78 % 0.0 mm 0 W/m2
04:00 9.4 °C 5.7 °C 1016.8 hPa SE 4.8 km/h 12.9 km/h 78 % 0.0 mm 0 W/m2
04:05 9.4 °C 5.7 °C 1016.8 hPa ESE 6.4 km/h 12.9 km/h 78 % 0.0 mm 0 W/m2
04:10 9.3 °C 5.6 °C 1016.5 hPa ESE 1.6 km/h 12.9 km/h 78 % 0.0 mm 0 W/m2
04:15 9.2 °C 5.6 °C 1016.5 hPa ESE 4.8 km/h 11.3 km/h 78 % 0.0 mm 0 W/m2
04:20 9.1 °C 5.6 °C 1016.5 hPa East 4.8 km/h 9.7 km/h 79 % 0.0 mm 0 W/m2
04:25 9.1 °C 5.6 °C 1016.5 hPa East 6.4 km/h 11.3 km/h 79 % 0.0 mm 0 W/m2
04:30 9.1 °C 5.6 °C 1016.1 hPa ESE 9.7 km/h 12.9 km/h 79 % 0.0 mm 0 W/m2
04:35 9.1 °C 5.7 °C 1016.1 hPa East 8.0 km/h 12.9 km/h 79 % 0.0 mm 0 W/m2
04:40 9.1 °C 5.7 °C 1016.1 hPa ENE 1.6 km/h 12.9 km/h 79 % 0.0 mm 0 W/m2
04:45 9.1 °C 5.6 °C 1016.1 hPa East 3.2 km/h 12.9 km/h 79 % 0.0 mm 0 W/m2
04:50 9.0 °C 5.6 °C 1016.1 hPa East 11.3 km/h 12.9 km/h 79 % 0.0 mm 0 W/m2
04:55 8.9 °C 5.5 °C 1016.1 hPa East 9.7 km/h 12.9 km/h 79 % 0.0 mm 0 W/m2
05:00 9.0 °C 5.6 °C 1016.1 hPa East 3.2 km/h 14.5 km/h 79 % 0.0 mm 0 W/m2
05:05 9.0 °C 5.6 °C 1016.1 hPa East 1.6 km/h 14.5 km/h 79 % 0.0 mm 0 W/m2
05:10 9.0 °C 5.6 °C 1016.1 hPa ESE 4.8 km/h 12.9 km/h 79 % 0.0 mm 0 W/m2
05:20 9.1 °C 5.6 °C 1015.8 hPa ESE 8.0 km/h 12.9 km/h 79 % 0.0 mm 0 W/m2
05:25 9.0 °C 5.6 °C 1015.8 hPa East 8.0 km/h 12.9 km/h 79 % 0.0 mm 0 W/m2
05:30 8.9 °C 5.4 °C 1015.8 hPa ENE 14.5 km/h 14.5 km/h 79 % 0.0 mm 0 W/m2
05:35 8.8 °C 5.5 °C 1015.8 hPa East 6.4 km/h 14.5 km/h 80 % 0.0 mm 0 W/m2
05:40 8.4 °C 5.4 °C 1016.1 hPa ENE 3.2 km/h 11.3 km/h 81 % 0.0 mm 0 W/m2
05:45 8.1 °C 5.2 °C 1016.1 hPa East 3.2 km/h 11.3 km/h 82 % 0.0 mm 0 W/m2
05:50 7.8 °C 5.1 °C 1016.1 hPa ENE 3.2 km/h 9.7 km/h 83 % 0.0 mm 0 W/m2
05:55 7.7 °C 5.1 °C 1016.1 hPa East 3.2 km/h 8.0 km/h 84 % 0.0 mm 0 W/m2
06:00 7.5 °C 5.0 °C 1016.1 hPa ENE 1.6 km/h 8.0 km/h 84 % 0.0 mm 0 W/m2
06:05 7.4 °C 5.0 °C 1016.1 hPa East 3.2 km/h 9.7 km/h 85 % 0.0 mm 0 W/m2
06:10 7.4 °C 5.0 °C 1016.1 hPa East 4.8 km/h 11.3 km/h 85 % 0.0 mm 0 W/m2
06:15 7.4 °C 5.3 °C 1016.1 hPa East 8.0 km/h 11.3 km/h 86 % 0.0 mm 0 W/m2
06:20 7.4 °C 5.3 °C 1016.1 hPa ENE 3.2 km/h 11.3 km/h 86 % 0.0 mm 0 W/m2
06:25 7.4 °C 5.2 °C 1016.1 hPa ENE 4.8 km/h 11.3 km/h 86 % 0.0 mm 0 W/m2
06:30 7.4 °C 5.2 °C 1016.1 hPa East 4.8 km/h 11.3 km/h 86 % 0.0 mm 0 W/m2
06:35 7.3 °C 5.1 °C 1016.1 hPa East 8.0 km/h 12.9 km/h 86 % 0.0 mm 0 W/m2
06:40 7.3 °C 5.3 °C 1016.1 hPa ENE 4.8 km/h 14.5 km/h 87 % 0.0 mm 0 W/m2
06:45 7.4 °C 5.4 °C 1016.1 hPa East 8.0 km/h 14.5 km/h 87 % 0.0 mm 0 W/m2
06:50 7.3 °C 5.3 °C 1016.1 hPa East 8.0 km/h 14.5 km/h 87 % 0.0 mm 0 W/m2
06:55 7.3 °C 5.3 °C 1016.1 hPa East 4.8 km/h 14.5 km/h 87 % 0.0 mm 0 W/m2
07:00 7.3 °C 5.3 °C 1016.5 hPa East 8.0 km/h 14.5 km/h 87 % 0.0 mm 0 W/m2
07:05 7.4 °C 5.2 °C 1016.1 hPa East 4.8 km/h 14.5 km/h 86 % 0.0 mm 0 W/m2
07:10 7.3 °C 5.1 °C 1016.5 hPa East 8.0 km/h 12.9 km/h 86 % 0.0 mm 0 W/m2
07:15 7.3 °C 5.1 °C 1016.5 hPa East 3.2 km/h 12.9 km/h 86 % 0.0 mm 0 W/m2
07:20 7.2 °C 5.0 °C 1016.5 hPa East 3.2 km/h 14.5 km/h 86 % 0.0 mm 0 W/m2
07:25 7.2 °C 5.1 °C 1016.5 hPa ENE 3.2 km/h 14.5 km/h 87 % 0.0 mm 0 W/m2
07:30 7.2 °C 5.1 °C 1016.5 hPa East 1.6 km/h 11.3 km/h 87 % 0.0 mm 0 W/m2
07:35 7.2 °C 5.2 °C 1016.5 hPa East 3.2 km/h 11.3 km/h 87 % 0.0 mm 0 W/m2
07:40 7.3 °C 5.1 °C 1016.5 hPa ESE 3.2 km/h 11.3 km/h 86 % 0.0 mm 0 W/m2
07:45 7.4 °C 5.2 °C 1016.5 hPa East 4.8 km/h 12.9 km/h 86 % 0.0 mm 0 W/m2
07:50 7.4 °C 5.2 °C 1016.5 hPa ESE 3.2 km/h 12.9 km/h 86 % 0.0 mm 0 W/m2
07:55 7.4 °C 5.3 °C 1016.5 hPa East 3.2 km/h 11.3 km/h 86 % 0.0 mm 0 W/m2
08:00 7.4 °C 5.2 °C 1016.5 hPa East 3.2 km/h 12.9 km/h 86 % 0.0 mm 5 W/m2
08:05 7.3 °C 5.1 °C 1016.8 hPa East 8.0 km/h 12.9 km/h 86 % 0.0 mm 7 W/m2
08:10 7.3 °C 5.1 °C 1016.8 hPa ENE 3.2 km/h 11.3 km/h 86 % 0.0 mm 11 W/m2
08:15 7.3 °C 5.1 °C 1016.5 hPa East 3.2 km/h 11.3 km/h 86 % 0.0 mm 16 W/m2
08:20 7.3 °C 5.1 °C 1016.8 hPa East 3.2 km/h 11.3 km/h 86 % 0.0 mm 18 W/m2
08:25 7.4 °C 5.3 °C 1016.8 hPa East 3.2 km/h 11.3 km/h 86 % 0.0 mm 19 W/m2
08:30 7.4 °C 5.1 °C 1016.8 hPa ENE 4.8 km/h 9.7 km/h 85 % 0.0 mm 21 W/m2
08:35 7.5 °C 5.1 °C 1016.5 hPa ENE 6.4 km/h 12.9 km/h 85 % 0.0 mm 23 W/m2
08:40 7.6 °C 5.2 °C 1016.5 hPa East 4.8 km/h 14.5 km/h 85 % 0.0 mm 23 W/m2
08:45 7.7 °C 5.3 °C 1016.5 hPa ENE 11.3 km/h 14.5 km/h 85 % 0.0 mm 25 W/m2
08:50 7.8 °C 5.3 °C 1016.5 hPa ENE 8.0 km/h 12.9 km/h 84 % 0.0 mm 28 W/m2
08:55 7.9 °C 5.4 °C 1016.5 hPa East 8.0 km/h 12.9 km/h 84 % 0.0 mm 30 W/m2
09:00 8.2 °C 5.5 °C 1016.5 hPa East 3.2 km/h 11.3 km/h 83 % 0.0 mm 39 W/m2
09:05 8.3 °C 5.6 °C 1016.5 hPa SE 4.8 km/h 12.9 km/h 83 % 0.0 mm 135 W/m2
09:10 8.5 °C 5.6 °C 1016.8 hPa ESE 8.0 km/h 14.5 km/h 82 % 0.0 mm 155 W/m2
09:15 8.8 °C 5.9 °C 1016.8 hPa East 9.7 km/h 14.5 km/h 82 % 0.0 mm 169 W/m2
09:20 9.1 °C 6.0 °C 1016.8 hPa East 4.8 km/h 14.5 km/h 81 % 0.0 mm 188 W/m2
09:25 9.4 °C 6.2 °C 1016.5 hPa ENE 3.2 km/h 14.5 km/h 80 % 0.0 mm 197 W/m2
09:30 9.7 °C 6.2 °C 1016.5 hPa East 4.8 km/h 12.9 km/h 79 % 0.0 mm 213 W/m2
09:35 9.9 °C 6.3 °C 1016.5 hPa SE 9.7 km/h 14.5 km/h 78 % 0.0 mm 244 W/m2
09:40 10.3 °C 6.4 °C 1016.5 hPa ESE 11.3 km/h 17.7 km/h 77 % 0.0 mm 258 W/m2
09:45 10.7 °C 6.6 °C 1016.5 hPa East 17.7 km/h 17.7 km/h 76 % 0.0 mm 109 W/m2
09:50 10.9 °C 6.6 °C 1016.5 hPa East 12.9 km/h 17.7 km/h 75 % 0.0 mm 35 W/m2
09:55 11.2 °C 6.9 °C 1016.5 hPa East 8.0 km/h 14.5 km/h 75 % 0.0 mm 37 W/m2
10:00 11.4 °C 7.0 °C 1016.5 hPa East 3.2 km/h 17.7 km/h 74 % 0.0 mm 37 W/m2
10:05 11.7 °C 7.0 °C 1016.5 hPa ENE 4.8 km/h 17.7 km/h 73 % 0.0 mm 327 W/m2
10:10 11.9 °C 7.1 °C 1016.1 hPa East 9.7 km/h 17.7 km/h 72 % 0.0 mm 350 W/m2
10:15 12.3 °C 7.2 °C 1016.1 hPa ESE 4.8 km/h 17.7 km/h 71 % 0.0 mm 364 W/m2
10:20 12.6 °C 7.1 °C 1016.1 hPa East 9.7 km/h 17.7 km/h 69 % 0.0 mm 380 W/m2
10:30 13.3 °C 7.5 °C 1016.1 hPa ENE 6.4 km/h 22.5 km/h 68 % 0.0 mm 408 W/m2
10:35 13.5 °C 7.5 °C 1016.1 hPa ESE 9.7 km/h 22.5 km/h 67 % 0.0 mm 420 W/m2
10:40 13.7 °C 7.7 °C 1016.1 hPa East 4.8 km/h 22.5 km/h 67 % 0.0 mm 436 W/m2
10:45 13.9 °C 7.7 °C 1016.1 hPa ESE 11.3 km/h 22.5 km/h 66 % 0.0 mm 450 W/m2
10:50 14.2 °C 8.0 °C 1016.1 hPa SE 6.4 km/h 20.9 km/h 66 % 0.0 mm 464 W/m2
10:55 14.4 °C 7.9 °C 1016.1 hPa ESE 11.3 km/h 17.7 km/h 65 % 0.0 mm 476 W/m2
11:00 14.7 °C 7.9 °C 1016.1 hPa ESE 11.3 km/h 17.7 km/h 64 % 0.0 mm 489 W/m2
11:05 14.9 °C 7.9 °C 1016.1 hPa East 6.4 km/h 22.5 km/h 63 % 0.0 mm 501 W/m2
11:10 14.9 °C 8.0 °C 1016.1 hPa East 9.7 km/h 22.5 km/h 63 % 0.0 mm 513 W/m2
11:15 15.3 °C 8.0 °C 1016.1 hPa East 12.9 km/h 22.5 km/h 62 % 0.0 mm 526 W/m2
11:20 15.5 °C 8.5 °C 1016.1 hPa ESE 12.9 km/h 19.3 km/h 63 % 0.0 mm 538 W/m2
11:25 15.8 °C 8.3 °C 1016.1 hPa ESE 22.5 km/h 25.7 km/h 61 % 0.0 mm 550 W/m2
11:30 16.1 °C 8.3 °C 1016.1 hPa SE 3.2 km/h 25.7 km/h 60 % 0.0 mm 561 W/m2
11:35 16.3 °C 8.5 °C 1016.1 hPa East 12.9 km/h 22.5 km/h 60 % 0.0 mm 571 W/m2
11:40 16.3 °C 8.0 °C 1016.5 hPa ESE 4.8 km/h 22.5 km/h 58 % 0.0 mm 582 W/m2
11:45 16.5 °C 8.2 °C 1016.5 hPa East 12.9 km/h 25.7 km/h 58 % 0.0 mm 594 W/m2
11:50 16.7 °C 8.2 °C 1016.5 hPa ESE 12.9 km/h 25.7 km/h 57 % 0.0 mm 603 W/m2
11:55 16.9 °C 8.6 °C 1016.5 hPa ESE 6.4 km/h 22.5 km/h 58 % 0.0 mm 613 W/m2
12:00 17.1 °C 8.2 °C 1016.1 hPa ESE 19.3 km/h 22.5 km/h 56 % 0.0 mm 624 W/m2
12:05 17.1 °C 8.5 °C 1016.5 hPa ESE 6.4 km/h 25.7 km/h 57 % 0.0 mm 633 W/m2
12:10 17.3 °C 8.4 °C 1016.5 hPa SE 14.5 km/h 25.7 km/h 56 % 0.0 mm 640 W/m2
12:15 17.6 °C 8.5 °C 1016.5 hPa East 12.9 km/h 22.5 km/h 55 % 0.0 mm 649 W/m2
12:20 17.8 °C 8.4 °C 1016.5 hPa ESE 11.3 km/h 22.5 km/h 54 % 0.0 mm 657 W/m2
12:25 17.9 °C 7.7 °C 1016.5 hPa ESE 22.5 km/h 24.1 km/h 51 % 0.0 mm 663 W/m2
12:30 18.0 °C 8.0 °C 1016.5 hPa ESE 14.5 km/h 24.1 km/h 52 % 0.0 mm 670 W/m2
12:35 18.4 °C 8.9 °C 1016.1 hPa ESE 14.5 km/h 22.5 km/h 54 % 0.0 mm 679 W/m2
12:40 18.4 °C 8.4 °C 1016.1 hPa East 14.5 km/h 22.5 km/h 52 % 0.0 mm 686 W/m2
12:45 18.5 °C 8.5 °C 1016.1 hPa SSE 16.1 km/h 22.5 km/h 52 % 0.0 mm 694 W/m2
12:50 18.2 °C 7.6 °C 1016.1 hPa SSE 4.8 km/h 25.7 km/h 50 % 0.0 mm 700 W/m2
12:55 18.6 °C 8.3 °C 1016.1 hPa East 11.3 km/h 25.7 km/h 51 % 0.0 mm 707 W/m2
13:00 18.5 °C 8.2 °C 1016.1 hPa SE 12.9 km/h 20.9 km/h 51 % 0.0 mm 712 W/m2
13:05 18.6 °C 7.9 °C 1016.1 hPa SE 6.4 km/h 22.5 km/h 50 % 0.0 mm 717 W/m2
13:15 18.6 °C 8.5 °C 1016.1 hPa SSE 9.7 km/h 22.5 km/h 52 % 0.0 mm 722 W/m2
13:20 18.7 °C 8.4 °C 1016.1 hPa SSE 14.5 km/h 22.5 km/h 51 % 0.0 mm 728 W/m2
13:25 18.9 °C 9.4 °C 1016.1 hPa SSE 6.4 km/h 17.7 km/h 54 % 0.0 mm 744 W/m2
13:30 18.9 °C 9.4 °C 1016.1 hPa SE 9.7 km/h 22.5 km/h 54 % 0.0 mm 742 W/m2
13:35 19.1 °C 9.3 °C 1016.1 hPa ESE 11.3 km/h 22.5 km/h 53 % 0.0 mm 744 W/m2
13:40 19.3 °C 8.6 °C 1016.1 hPa ENE 4.8 km/h 19.3 km/h 50 % 0.0 mm 745 W/m2
13:50 19.7 °C 9.5 °C 1015.8 hPa ESE 11.3 km/h 20.9 km/h 52 % 0.0 mm 749 W/m2
13:55 19.3 °C 9.7 °C 1015.8 hPa SE 12.9 km/h 14.5 km/h 54 % 0.0 mm 745 W/m2
14:00 19.6 °C 10.0 °C 1015.8 hPa ESE 14.5 km/h 16.1 km/h 54 % 0.0 mm 747 W/m2
14:05 19.7 °C 9.3 °C 1016.1 hPa ESE 11.3 km/h 16.1 km/h 51 % 0.0 mm 744 W/m2
14:10 19.4 °C 9.0 °C 1016.1 hPa SE 6.4 km/h 16.1 km/h 51 % 0.0 mm 744 W/m2
14:15 19.4 °C 9.0 °C 1016.1 hPa South 12.9 km/h 16.1 km/h 51 % 0.0 mm 742 W/m2
14:20 19.3 °C 8.9 °C 1016.1 hPa SSE 11.3 km/h 19.3 km/h 51 % 0.0 mm 740 W/m2
14:25 19.4 °C 9.0 °C 1016.1 hPa SE 11.3 km/h 19.3 km/h 51 % 0.0 mm 738 W/m2
14:30 19.4 °C 9.0 °C 1016.1 hPa SSE 11.3 km/h 17.7 km/h 51 % 0.0 mm 737 W/m2
14:35 19.4 °C 9.6 °C 1016.1 hPa SSE 11.3 km/h 17.7 km/h 53 % 0.0 mm 737 W/m2
14:40 19.9 °C 10.3 °C 1016.1 hPa SSE 6.4 km/h 16.1 km/h 54 % 0.0 mm 708 W/m2
14:45 19.7 °C 9.3 °C 1015.8 hPa ENE 6.4 km/h 16.1 km/h 51 % 0.0 mm 721 W/m2
14:50 19.8 °C 9.4 °C 1016.1 hPa SSE 6.4 km/h 14.5 km/h 51 % 0.0 mm 735 W/m2
14:55 19.7 °C 9.5 °C 1016.1 hPa SSE 9.7 km/h 19.3 km/h 52 % 0.0 mm 726 W/m2
15:00 20.0 °C 9.6 °C 1016.1 hPa South 4.8 km/h 19.3 km/h 51 % 0.0 mm 715 W/m2
15:05 20.3 °C 9.8 °C 1016.1 hPa SE 9.7 km/h 17.7 km/h 51 % 0.0 mm 722 W/m2
15:10 20.1 °C 9.9 °C 1015.8 hPa East 4.8 km/h 17.7 km/h 52 % 0.0 mm 712 W/m2
15:15 19.8 °C 8.8 °C 1015.8 hPa South 4.8 km/h 17.7 km/h 49 % 0.0 mm 670 W/m2
15:20 19.8 °C 8.8 °C 1015.8 hPa South 9.7 km/h 17.7 km/h 49 % 0.0 mm 647 W/m2
15:25 19.9 °C 9.2 °C 1015.8 hPa SSE 4.8 km/h 12.9 km/h 50 % 0.0 mm 657 W/m2
15:30 20.0 °C 9.3 °C 1015.8 hPa WSW 4.8 km/h 14.5 km/h 50 % 0.0 mm 671 W/m2
15:35 19.8 °C 9.7 °C 1015.8 hPa South 8.0 km/h 14.5 km/h 52 % 0.0 mm 677 W/m2
15:40 19.7 °C 10.4 °C 1016.1 hPa SSW 4.8 km/h 19.3 km/h 55 % 0.0 mm 679 W/m2
15:45 18.2 °C 9.8 °C 1016.1 hPa WSW 11.3 km/h 19.3 km/h 58 % 0.0 mm 668 W/m2
15:50 17.6 °C 9.9 °C 1016.1 hPa SSW 11.3 km/h 20.9 km/h 61 % 0.0 mm 657 W/m2
15:55 17.4 °C 10.1 °C 1016.1 hPa SW 14.5 km/h 20.9 km/h 62 % 0.0 mm 615 W/m2
16:00 17.2 °C 9.3 °C 1016.1 hPa SE 11.3 km/h 17.7 km/h 60 % 0.0 mm 592 W/m2
16:05 17.1 °C 9.2 °C 1016.1 hPa SW 9.7 km/h 20.9 km/h 60 % 0.0 mm 610 W/m2
16:10 17.0 °C 8.9 °C 1016.1 hPa SW 6.4 km/h 20.9 km/h 59 % 0.0 mm 554 W/m2
16:15 17.3 °C 9.2 °C 1016.5 hPa SW 17.7 km/h 19.3 km/h 59 % 0.0 mm 615 W/m2
16:20 17.4 °C 9.0 °C 1016.5 hPa SW 11.3 km/h 19.3 km/h 58 % 0.0 mm 615 W/m2
16:25 17.6 °C 9.0 °C 1016.5 hPa SSW 6.4 km/h 17.7 km/h 57 % 0.0 mm 587 W/m2
16:30 17.6 °C 8.7 °C 1016.5 hPa SSW 8.0 km/h 14.5 km/h 56 % 0.0 mm 596 W/m2
16:35 17.2 °C 8.9 °C 1016.5 hPa SW 9.7 km/h 16.1 km/h 58 % 0.0 mm 580 W/m2
16:40 17.1 °C 9.0 °C 1016.5 hPa SSE 6.4 km/h 16.1 km/h 59 % 0.0 mm 561 W/m2
16:45 17.3 °C 9.2 °C 1016.5 hPa WSW 1.6 km/h 12.9 km/h 59 % 0.0 mm 543 W/m2
16:50 17.4 °C 9.1 °C 1016.5 hPa South 8.0 km/h 16.1 km/h 58 % 0.0 mm 541 W/m2
16:55 17.4 °C 9.1 °C 1016.5 hPa SSW 4.8 km/h 17.7 km/h 58 % 0.0 mm 531 W/m2
17:00 17.1 °C 9.0 °C 1016.5 hPa South 14.5 km/h 17.7 km/h 59 % 0.0 mm 512 W/m2
17:05 17.0 °C 8.2 °C 1016.5 hPa WSW 9.7 km/h 22.5 km/h 56 % 0.0 mm 492 W/m2
17:10 17.1 °C 8.8 °C 1016.5 hPa SSW 12.9 km/h 22.5 km/h 58 % 0.0 mm 471 W/m2
17:15 17.2 °C 8.9 °C 1016.5 hPa SSW 8.0 km/h 17.7 km/h 58 % 0.0 mm 480 W/m2
17:20 16.9 °C 8.9 °C 1016.5 hPa South 14.5 km/h 17.7 km/h 59 % 0.0 mm 432 W/m2
17:25 16.8 °C 8.7 °C 1016.8 hPa South 8.0 km/h 19.3 km/h 59 % 0.0 mm 420 W/m2
17:30 16.9 °C 8.9 °C 1016.8 hPa SW 9.7 km/h 19.3 km/h 59 % 0.0 mm 221 W/m2
17:35 16.8 °C 8.5 °C 1016.8 hPa SW 8.0 km/h 20.9 km/h 58 % 0.0 mm 199 W/m2
17:40 16.9 °C 8.6 °C 1016.8 hPa South 16.1 km/h 20.9 km/h 58 % 0.0 mm 167 W/m2
17:45 16.9 °C 8.3 °C 1016.8 hPa SSW 9.7 km/h 17.7 km/h 57 % 0.0 mm 190 W/m2
17:50 16.8 °C 8.2 °C 1016.8 hPa West 6.4 km/h 19.3 km/h 57 % 0.0 mm 207 W/m2
17:55 16.7 °C 8.2 °C 1016.8 hPa WSW 11.3 km/h 20.9 km/h 57 % 0.0 mm 185 W/m2
18:00 16.4 °C 7.8 °C 1016.8 hPa SSW 8.0 km/h 20.9 km/h 57 % 0.0 mm 109 W/m2
18:05 16.3 °C 7.7 °C 1017.2 hPa South 11.3 km/h 19.3 km/h 57 % 0.0 mm 244 W/m2
18:10 16.3 °C 8.0 °C 1016.8 hPa SSW 9.7 km/h 20.9 km/h 58 % 0.0 mm 158 W/m2
18:15 16.2 °C 7.6 °C 1016.8 hPa SW 9.7 km/h 20.9 km/h 57 % 0.0 mm 172 W/m2
18:20 16.1 °C 7.5 °C 1016.8 hPa SSW 1.6 km/h 20.9 km/h 57 % 0.0 mm 183 W/m2
18:25 15.9 °C 7.7 °C 1016.8 hPa SW 4.8 km/h 20.9 km/h 58 % 0.0 mm 97 W/m2
18:30 15.9 °C 8.4 °C 1016.8 hPa WSW 8.0 km/h 17.7 km/h 61 % 0.0 mm 149 W/m2
18:35 15.9 °C 8.4 °C 1016.8 hPa SW 11.3 km/h 16.1 km/h 61 % 0.0 mm 151 W/m2
18:40 15.9 °C 8.7 °C 1016.8 hPa South 9.7 km/h 14.5 km/h 62 % 0.0 mm 213 W/m2
18:45 15.9 °C 8.4 °C 1016.8 hPa WSW 6.4 km/h 17.7 km/h 61 % 0.0 mm 218 W/m2
18:50 15.8 °C 8.7 °C 1016.8 hPa SSW 9.7 km/h 20.9 km/h 63 % 0.0 mm 134 W/m2
18:55 15.7 °C 8.7 °C 1016.8 hPa South 12.9 km/h 22.5 km/h 63 % 0.0 mm 105 W/m2
19:00 15.7 °C 8.7 °C 1017.2 hPa SSW 3.2 km/h 22.5 km/h 63 % 0.0 mm 95 W/m2
19:05 15.6 °C 8.5 °C 1017.2 hPa SSW 11.3 km/h 22.5 km/h 63 % 0.0 mm 90 W/m2
19:10 15.4 °C 8.7 °C 1016.8 hPa South 8.0 km/h 17.7 km/h 64 % 0.0 mm 100 W/m2
19:15 15.3 °C 8.3 °C 1016.8 hPa South 12.9 km/h 19.3 km/h 63 % 0.0 mm 104 W/m2
19:20 15.3 °C 8.3 °C 1016.8 hPa SW 6.4 km/h 19.3 km/h 63 % 0.0 mm 53 W/m2
19:25 15.3 °C 8.6 °C 1016.8 hPa South 6.4 km/h 12.9 km/h 64 % 0.0 mm 40 W/m2
19:30 15.3 °C 8.5 °C 1017.2 hPa SSE 8.0 km/h 11.3 km/h 64 % 0.0 mm 37 W/m2
19:35 15.2 °C 8.4 °C 1017.2 hPa SSW 8.0 km/h 19.3 km/h 64 % 0.0 mm 33 W/m2
19:40 15.0 °C 8.2 °C 1017.2 hPa South 16.1 km/h 19.3 km/h 64 % 0.0 mm 30 W/m2
19:45 14.8 °C 8.5 °C 1017.2 hPa SSW 6.4 km/h 17.7 km/h 66 % 0.0 mm 28 W/m2
19:50 14.7 °C 8.6 °C 1017.5 hPa SSW 6.4 km/h 16.1 km/h 67 % 0.0 mm 25 W/m2
19:55 14.6 °C 8.5 °C 1017.5 hPa South 9.7 km/h 16.1 km/h 67 % 0.0 mm 21 W/m2
20:00 14.4 °C 8.6 °C 1017.5 hPa South 4.8 km/h 16.1 km/h 68 % 0.0 mm 19 W/m2
20:05 14.1 °C 8.5 °C 1017.5 hPa SSW 9.7 km/h 16.1 km/h 69 % 0.0 mm 18 W/m2
20:10 14.1 °C 8.7 °C 1017.5 hPa South 3.2 km/h 16.1 km/h 70 % 0.0 mm 16 W/m2
20:15 13.9 °C 8.5 °C 1017.5 hPa South 9.7 km/h 17.7 km/h 70 % 0.0 mm 14 W/m2
20:20 13.8 °C 8.6 °C 1017.5 hPa South 6.4 km/h 17.7 km/h 71 % 0.0 mm 11 W/m2
20:25 13.6 °C 8.7 °C 1017.5 hPa South 8.0 km/h 12.9 km/h 72 % 0.0 mm 7 W/m2
20:30 13.3 °C 8.5 °C 1017.5 hPa SSE 4.8 km/h 12.9 km/h 73 % 0.0 mm 0 W/m2
20:35 13.1 °C 8.5 °C 1017.5 hPa South 4.8 km/h 12.9 km/h 74 % 0.0 mm 0 W/m2
20:40 12.9 °C 8.6 °C 1017.5 hPa SSE 4.8 km/h 12.9 km/h 75 % 0.0 mm 0 W/m2
20:45 12.8 °C 8.5 °C 1017.5 hPa South 8.0 km/h 9.7 km/h 75 % 0.0 mm 0 W/m2
20:50 12.6 °C 8.4 °C 1017.5 hPa SSE 4.8 km/h 9.7 km/h 76 % 0.0 mm 0 W/m2
20:55 12.4 °C 8.3 °C 1017.5 hPa SSE 3.2 km/h 8.0 km/h 76 % 0.0 mm 0 W/m2
21:00 12.3 °C 8.4 °C 1017.5 hPa SE 3.2 km/h 8.0 km/h 77 % 0.0 mm 0 W/m2
21:05 12.1 °C 8.3 °C 1017.5 hPa SSE 4.8 km/h 8.0 km/h 78 % 0.0 mm 0 W/m2
21:10 12.1 °C 8.3 °C 1017.8 hPa South 3.2 km/h 8.0 km/h 78 % 0.0 mm 0 W/m2
21:15 11.9 °C 8.2 °C 1017.8 hPa South 3.2 km/h 8.0 km/h 78 % 0.0 mm 0 W/m2
21:20 11.8 °C 8.3 °C 1017.8 hPa South 4.8 km/h 8.0 km/h 79 % 0.0 mm 0 W/m2
21:25 11.7 °C 8.2 °C 1018.2 hPa South 4.8 km/h 8.0 km/h 79 % 0.0 mm 0 W/m2
21:30 11.7 °C 8.4 °C 1018.2 hPa SSE 6.4 km/h 8.0 km/h 80 % 0.0 mm 0 W/m2
21:35 11.7 °C 8.2 °C 1018.2 hPa SSE 8.0 km/h 9.7 km/h 79 % 0.0 mm 0 W/m2
21:40 11.9 °C 8.4 °C 1018.2 hPa South 6.4 km/h 11.3 km/h 79 % 0.0 mm 0 W/m2
21:45 12.2 °C 8.4 °C 1018.2 hPa SSW 6.4 km/h 12.9 km/h 78 % 0.0 mm 0 W/m2
21:50 12.3 °C 8.6 °C 1018.2 hPa SSE 8.0 km/h 17.7 km/h 78 % 0.0 mm 0 W/m2
21:55 12.3 °C 8.6 °C 1018.2 hPa SSW 9.7 km/h 17.7 km/h 78 % 0.0 mm 0 W/m2
22:00 12.4 °C 8.7 °C 1018.5 hPa South 11.3 km/h 16.1 km/h 78 % 0.0 mm 0 W/m2
22:10 12.3 °C 8.8 °C 1018.5 hPa South 6.4 km/h 17.7 km/h 79 % 0.0 mm 0 W/m2
22:15 12.3 °C 8.9 °C 1018.5 hPa South 9.7 km/h 17.7 km/h 80 % 0.0 mm 0 W/m2
22:20 12.2 °C 8.9 °C 1018.5 hPa South 9.7 km/h 16.1 km/h 80 % 0.0 mm 0 W/m2
22:25 12.2 °C 8.9 °C 1018.5 hPa South 9.7 km/h 16.1 km/h 80 % 0.0 mm 0 W/m2
22:30 12.1 °C 8.9 °C 1018.5 hPa South 9.7 km/h 16.1 km/h 81 % 0.0 mm 0 W/m2
22:35 12.1 °C 8.9 °C 1018.5 hPa SSE 6.4 km/h 14.5 km/h 81 % 0.0 mm 0 W/m2
22:40 12.0 °C 9.0 °C 1018.5 hPa South 6.4 km/h 14.5 km/h 82 % 0.0 mm 0 W/m2
22:45 11.9 °C 9.0 °C 1018.8 hPa SSW 4.8 km/h 14.5 km/h 82 % 0.0 mm 0 W/m2
22:50 11.9 °C 8.9 °C 1018.5 hPa SSW 6.4 km/h 14.5 km/h 82 % 0.0 mm 0 W/m2
22:55 11.8 °C 9.0 °C 1018.8 hPa South 3.2 km/h 11.3 km/h 83 % 0.0 mm 0 W/m2
23:00 11.7 °C 8.9 °C 1018.8 hPa South 6.4 km/h 12.9 km/h 83 % 0.0 mm 0 W/m2
23:05 11.7 °C 8.9 °C 1018.8 hPa South 8.0 km/h 12.9 km/h 83 % 0.0 mm 0 W/m2
23:10 11.5 °C 8.9 °C 1018.8 hPa South 4.8 km/h 9.7 km/h 84 % 0.0 mm 0 W/m2
23:15 11.4 °C 8.8 °C 1018.8 hPa SSE 4.8 km/h 9.7 km/h 84 % 0.0 mm 0 W/m2
23:20 11.4 °C 8.8 °C 1018.8 hPa South 6.4 km/h 9.7 km/h 84 % 0.0 mm 0 W/m2
23:25 11.3 °C 8.8 °C 1018.8 hPa SSW 6.4 km/h 8.0 km/h 85 % 0.0 mm 0 W/m2
23:30 11.3 °C 8.9 °C 1018.8 hPa SSW 8.0 km/h 9.7 km/h 85 % 0.0 mm 0 W/m2
23:35 11.3 °C 8.9 °C 1018.8 hPa SSW 11.3 km/h 14.5 km/h 85 % 0.0 mm 0 W/m2
23:40 11.4 °C 9.2 °C 1018.8 hPa SSW 8.0 km/h 14.5 km/h 86 % 0.0 mm 0 W/m2
23:45 11.4 °C 9.2 °C 1018.8 hPa South 9.7 km/h 12.9 km/h 86 % 0.0 mm 0 W/m2
23:50 11.4 °C 9.2 °C 1018.8 hPa South 3.2 km/h 12.9 km/h 86 % 0.0 mm 0 W/m2
23:55 11.4 °C 9.2 °C 1018.8 hPa South 4.8 km/h 12.9 km/h 86 % 0.0 mm 0 W/m2
Avec l'autorisation de Weather Underground - 1.75 mb